Location: El Gallo
(32.4380°N, 116.9347°W)
Time: 19:24:39
(UTC+00:00)

USA 238 - Pass Details

Date: 01 October 2022
Orbit: 954 x 1258 km, 63.4° (Epoch: 25 November)

Event Time Altitude Azimuth Distance (km) Brightness Sun altitude
Rises 13:14:31 0° 232° (SW) 3,626 6.0 -6.6°
Reaches altitude 10° 13:17:13 10° 241° (WSW) 2,697 5.3 -6.0°
Maximum altitude 13:23:00 38° 308° (NW) 1,482 4.1 -4.8°
Drops below altitude 10° 13:29:07 10° 15° (NNE) 2,845 6.1 -3.5°
Sets 13:32:03 0° 23° (NNE) 3,848 6.9 -2.9°
